Location: Jetmore Oil Field
(38.1181°N, 99.9337°W)
Time: 00:37:26
(UTC+00:00)

ISS - Pass Details

Date: 28 June 2021
Orbit: 419 x 421 km, 51.6° (Epoch: 30 July)

Event Time Altitude Azimuth Distance (km) Brightness Sun altitude
Exits shadow 09:15:26 33° 139° (SE) 726 -2.7 -19.0°
Maximum altitude 09:15:33 33° 134° (SE) 724 -2.7 -19.0°
Drops below altitude 10° 09:18:37 10° 68° (ENE) 1,498 -0.1 -18.6°
Sets 09:20:50 0° 59° (ENE) 2,365 1.4 -18.3°
